Location: Baix
(44.7118°N, 4.7648°E)
Time: 23:05:36
(UTC+00:00)

Transit 2A Rocket - All Passes

Search period start: 25 November 2020 00:00
Search period end: 05 December 2020 00:00
Orbit: 588 x 914 km, 66.7° (Epoch: 25 November)

Date Brightness Start Highest point End Pass type
(mag) Time Alt. Az. Time Alt. Az. Time Alt. Az.
25 Nov - 01:13:14 10° SSE 01:17:33 21° ESE 01:21:44 10° ENE night (unlit)
25 Nov - 02:53:42 10° SW 02:59:43 72° NW 03:05:22 10° NNE visible
25 Nov - 04:39:21 10° WNW 04:43:14 18° NW 04:46:58 10° N visible
25 Nov - 09:54:33 10° NNW 09:58:33 23° NE 10:02:17 10° E daylight
25 Nov - 11:36:45 10° NW 11:41:33 56° WSW 11:45:56 10° SSE daylight
26 Nov - 00:33:09 10° SE 00:35:19 12° ESE 00:37:27 10° E night (unlit)
26 Nov - 02:11:06 10° SSW 02:17:06 74° ESE 02:22:47 10° NE visible
26 Nov - 03:55:26 10° W 04:00:13 25° NW 04:04:47 10° NNE visible
26 Nov - 09:12:25 10° N 09:15:32 16° NE 09:18:29 10° ENE daylight
26 Nov - 10:54:04 10° NNW 10:59:01 82° NE 11:03:31 10° SE daylight
26 Nov - 12:39:05 10° W 12:40:41 12° WSW 12:42:15 10° WSW daylight
27 Nov - 01:28:54 10° S 01:34:36 46° ESE 01:40:01 10° NE night (unlit)
27 Nov - 03:11:54 10° WSW 03:17:21 36° NW 03:22:29 10° NNE visible
27 Nov - 05:00:23 10° NW 05:01:34 11° NNW 05:02:44 10° NNW visible
27 Nov - 08:30:41 10° N 08:32:23 11° NNE 08:34:02 10° NE daylight
27 Nov - 10:11:33 10° NNW 10:16:21 48° NE 10:20:43 10° SE daylight
27 Nov - 11:54:55 10° WNW 11:58:29 21° WSW 12:01:53 10° SSW daylight
28 Nov - 00:47:10 10° SSE 00:52:11 28° ESE 00:57:00 10° NE night (unlit)
28 Nov - 02:28:43 10° SW 02:34:35 54° NW 02:40:04 10° NNE visible
28 Nov - 04:15:18 10° WNW 04:18:21 14° NNW 04:21:19 10° N visible
28 Nov - 09:29:09 10° NNW 09:33:32 30° NE 09:37:35 10° ESE daylight
28 Nov - 11:11:44 10° NW 11:16:11 38° WSW 11:20:18 10° S daylight
29 Nov - 00:06:08 10° SE 00:09:53 17° ESE 00:13:30 10° ENE night (unlit)
29 Nov - 01:45:53 10° SSW 01:51:54 84° WNW 01:57:34 10° NNE visible
29 Nov - 03:31:05 10° W 03:35:17 20° NW 03:39:17 10° N visible
29 Nov - 08:46:55 10° N 08:50:35 20° NE 08:54:02 10° E daylight
29 Nov - 10:28:54 10° NW 10:33:45 70° WSW 10:38:11 10° SSE daylight
30 Nov - 01:03:25 10° SSW 01:09:20 62° ESE 01:14:55 10° NE night (unlit)
30 Nov - 02:47:18 10° WSW 02:52:19 28° NW 02:57:04 10° NNE visible
30 Nov - 08:04:54 10° N 08:07:31 14° NNE 08:10:03 10° ENE daylight
30 Nov - 09:46:17 10° NNW 09:51:10 67° NE 09:55:37 10° SE daylight
30 Nov - 11:30:30 10° WNW 11:33:00 14° WSW 11:35:25 10° SW daylight
01 Dec - 00:21:22 10° S 00:26:51 38° ESE 00:32:04 10° NE night (unlit)
01 Dec - 02:03:53 10° WSW 02:09:28 41° NW 02:14:43 10° NNE visible
01 Dec - 03:51:36 10° NW 03:53:31 12° NNW 03:55:24 10° N visible
01 Dec - 07:23:52 10° NNE 07:24:20 10° NNE 07:24:48 10° NNE daylight
01 Dec - 09:03:49 10° NNW 09:08:27 40° NE 09:12:42 10° ESE daylight
01 Dec - 10:46:51 10° NW 10:50:46 26° WSW 10:54:27 10° SSW daylight
01 Dec - 23:39:50 10° SSE 23:44:28 24° ESE 23:48:56 10° ENE night (unlit)
02 Dec - 01:20:50 10° SW 01:26:45 63° NW 01:32:17 10° NNE night (unlit)
02 Dec - 03:06:55 10° WNW 03:10:22 16° NW 03:13:41 10° N visible
02 Dec - 08:21:29 10° NNW 08:25:35 26° NE 08:29:25 10° E daylight
02 Dec - 10:03:49 10° NW 10:08:25 47° WSW 10:12:39 10° S daylight
02 Dec - 22:59:13 10° SE 23:02:11 14° ESE 23:05:06 10° ENE night (unlit)
03 Dec - 00:38:07 10° SSW 00:44:06 84° ESE 00:49:43 10° NNE night (unlit)
03 Dec - 02:22:51 10° W 02:27:20 22° NW 02:31:34 10° N visible
03 Dec - 07:39:18 10° N 07:42:36 17° NE 07:45:43 10° E daylight
03 Dec - 09:21:04 10° NNW 09:25:55 85° WSW 09:30:22 10° SSE daylight
03 Dec - 23:55:47 10° S 00:01:33 53° ESE 00:07:01 10° NE night (unlit)
04 Dec - 01:39:12 10° WSW 01:44:25 32° NW 01:49:19 10° NNE night (unlit)
04 Dec - 06:57:27 10° N 06:59:29 12° NNE 07:01:28 10° NE daylight
04 Dec - 08:38:31 10° NNW 08:43:18 55° NE 08:47:41 10° SE daylight
04 Dec - 10:22:12 10° WNW 10:25:18 18° WSW 10:28:16 10° SSW daylight
04 Dec - 23:13:54 10° S 23:19:07 32° ESE 23:24:05 10° NE night (unlit)
